map of YRQ home
YRQ - Airport
Location
City:  Trois-Rivières, Québec, Canada
Name:Trois-Rivières Airport
ICAO:CYRQ
IATA:YRQ

Details
Type:Airport (Airfield)
Use:Public/Civil
Latitude:46°21'06"N (46.351667)
Longitude:72°40'50"W (-72.680555)
Elevation:199 ft (61 m)
Variation:15.17°W (WMM2015 magnetic declination)
0.08° annual change
Runways:1
Longest:9006 ft (2745 m), paved

Time
Time Zone:UTC-5 (DST-4)
Local Time:

Weather
METAR:CYRQ 290500Z AUTO 23008KT 9SM CLR 11/06 A2990 RMK SLP126
TAF:CYRQ 290138Z 2902/2914 23012G22KT P6SM FEW250
FM290900 23007KT P6SM BKN050 OVC090
BECMG 2910/2912 BKN030 OVC060
RMK FCST BASED ON AUTO OBS. NXT FCST BY 290800Z

Related Locations
Nearby:
Farthest:YDEK: 11487 mi / 18486 km
Denmark, WA, AU

Find:

   beyond  
but within

Other Information
Maps:
NOTAMs:
Links:
Sources:

  
flag of Canada
flag of Québec
  

Airport Diagram

Airport diagram for YRQ

Airport diagram PDF

Sectional Chart

Flight Planning
at skyvector.com

Satellite Image

Google Maps Satellite view

 

Copyright © 2004-2017 Karl L. Swartz. All rights reserved.
The Great Circle Mapper name and logo are trademarks of the Great Circle Mapper.
All other trademarks mentioned herein belong to their respective owners.
Please see credits for attibutions and further copyright information.

  Follow gcmap on Facebook Follow gcmap on Twitter Follow gcmap on Google+ GCmap on LinkedIn

hCard Microformat

Geo Microformat